Home > Products > Valid Products > RWR

000
ASUS44 KBMX 290510
RWRAL

ALABAMA REGIONAL WEATHER ROUNDUP
NATIONAL WEATHER SERVICE BIRMINGHAM AL
1200 AM CDT SUN MAY 29 2016

NOTE: "FAIR" INDICATES FEW OR NO CLOUDS BELOW 12,000 FEET
WITH NO SIGNIFICANT WEATHER AND/OR OBSTRUCTIONS TO VISIBILITY.

THE REMARK "TC" DENOTES TEMPERATURE IN DEGREES CELSIUS.

ALZ001>011-014-016>018-020-290600-
NORTH ALABAMA

CITY           SKY/WX    TMP DP  RH WIND       PRES   REMARKS
MUSCLE SHOALS  PTCLDY    69  64  84 CALM      30.09F
HUNTSVILLE     PTCLDY    69  65  86 E5        30.11R
DECATUR        PTCLDY    67  64  90 CALM      30.11R
HALEYVILLE     FAIR      65  63  93 CALM      30.13S
GADSDEN        PTCLDY    65  63  93 W3        30.12R
$$

ALZ012-013-022-023-030>036-040>044-290600-
WEST CENTRAL ALABAMA

CITY           SKY/WX    TMP DP  RH WIND       PRES   REMARKS
TUSCALOOSA     PTCLDY    70  67  90 CALM      30.08R
$$

ALZ015-024>027-033>036-040>044-290600-
CENTRAL ALABAMA

CITY           SKY/WX    TMP DP  RH WIND       PRES   REMARKS
BIRMINGHAM     PTCLDY    69  63  81 CALM      30.12R
MONTGOMERY     CLOUDY    78  66  66 NE3       30.08R
SHELBY CO ARPT CLEAR     70  67  90 CALM      30.10R
MAXWELL AFB    CLOUDY    76  67  75 NE2       30.07S
GREENVILLE     FAIR      74  70  87 CALM      30.08R
$$

ALZ019-021-028-029-037-038-045>048-290600-
EAST CENTRAL ALABAMA

CITY           SKY/WX    TMP DP  RH WIND       PRES   REMARKS
ANNISTON       PTCLDY    68  65  90 E5        30.11S
ALEXANDER CITY CLOUDY    73  72  97 CALM      30.11S
AUBURN         PTCLDY   N/A N/A N/A NE7       30.11F
$$

ALZ051>064-290600-
SOUTHWEST ALABAMA

CITY           SKY/WX    TMP DP  RH WIND       PRES   REMARKS
MOBILE         CLEAR     68  67  96 CALM      30.08F
BROOKLEY FIELD CLEAR     70  68  93 CALM      30.08F
EVERGREEN      PTCLDY    70  68  93 CALM      30.08S
$$

ALZ049-050-065>069-290600-
SOUTHEAST ALABAMA

CITY           SKY/WX    TMP DP  RH WIND       PRES   REMARKS
DOTHAN         CLEAR     74  68  81 W3        30.11R
OZARK          MOCLDY    72  69  89 W2        30.07S
TROY           CLOUDY    71  69  93 CALM      30.09S
EUFAULA        FAIR      67  64  90 CALM      30.06F
$$






000
ASUS44 KBMX 282110
RWRAL

ALABAMA REGIONAL WEATHER ROUNDUP
NATIONAL WEATHER SERVICE BIRMINGHAM AL
400 PM CDT SAT MAY 28 2016

NOTE: "FAIR" INDICATES FEW OR NO CLOUDS BELOW 12,000 FEET
WITH NO SIGNIFICANT WEATHER AND/OR OBSTRUCTIONS TO VISIBILITY.

THE REMARK "TC" DENOTES TEMPERATURE IN DEGREES CELSIUS.

ALZ001>011-014-016>018-020-282200-
NORTH ALABAMA

CITY           SKY/WX    TMP DP  RH WIND       PRES   REMARKS
MUSCLE SHOALS  CLOUDY    83  60  45 S15       30.08S
HUNTSVILLE     CLOUDY    79  60  52 SW6       30.09F
DECATUR        PTSUNNY   78  64  61 SE8       30.10S
HALEYVILLE     FAIR      81  63  54 S12       30.11S
GADSDEN        CLOUDY    78  68  71 W12       30.08S
$$

ALZ012-013-022-023-030>036-040>044-282200-
WEST CENTRAL ALABAMA

CITY           SKY/WX    TMP DP  RH WIND       PRES   REMARKS
TUSCALOOSA     CLOUDY    86  61  42 S8G17     30.05F
$$

ALZ015-024>027-033>036-040>044-282200-
CENTRAL ALABAMA

CITY           SKY/WX    TMP DP  RH WIND       PRES   REMARKS
BIRMINGHAM     CLOUDY    82  60  47 S7        30.10F
MONTGOMERY     MOSUNNY   86  66  51 VRB5      30.05F
SHELBY CO ARPT CLOUDY    82  64  54 SE5       30.08F
MAXWELL AFB    MOSUNNY   85  65  51 N3        30.05F
GREENVILLE     FAIR      85  63  47 SE7       30.04F
$$

ALZ019-021-028-029-037-038-045>048-282200-
EAST CENTRAL ALABAMA

CITY           SKY/WX    TMP DP  RH WIND       PRES   REMARKS
ANNISTON       PTSUNNY   87  58  37 VRB3      30.07F
ALEXANDER CITY PTSUNNY   79  72  80 W7        30.08S
AUBURN         MOSUNNY  N/A N/A N/A N3        30.08S
$$

ALZ051>064-282200-
SOUTHWEST ALABAMA

CITY           SKY/WX    TMP DP  RH WIND       PRES   REMARKS
MOBILE         PTSUNNY   83  68  60 SE5       30.05F
BROOKLEY FIELD MOSUNNY   82  70  66 S10       30.06S
EVERGREEN      CLOUDY    85  62  46 E5        30.05F
$$

ALZ049-050-065>069-282200-
SOUTHEAST ALABAMA

CITY           SKY/WX    TMP DP  RH WIND       PRES   REMARKS
DOTHAN         CLOUDY    88  56  33 NE5       30.06F
OZARK          PTSUNNY   84  68  57 W6        30.04S
TROY           CLOUDY    84  69  60 NW8       30.06F
EUFAULA        FAIR      88  61  40 CALM      30.03S
$$






000
ASUS44 KBMX 281410
RWRAL

ALABAMA REGIONAL WEATHER ROUNDUP
NATIONAL WEATHER SERVICE BIRMINGHAM AL
900 AM CDT SAT MAY 28 2016

NOTE: "FAIR" INDICATES FEW OR NO CLOUDS BELOW 12,000 FEET
WITH NO SIGNIFICANT WEATHER AND/OR OBSTRUCTIONS TO VISIBILITY.

THE REMARK "TC" DENOTES TEMPERATURE IN DEGREES CELSIUS.

ALZ001>011-014-016>018-020-281500-
NORTH ALABAMA

CITY           SKY/WX    TMP DP  RH WIND       PRES   REMARKS
MUSCLE SHOALS  CLOUDY    75  65  70 SE8       30.09R
HUNTSVILLE     CLOUDY    75  62  64 SE6       30.11R
DECATUR        CLOUDY    74  65  73 SE8       30.11R
HALEYVILLE     FAIR      73  66  78 S3        30.11S
GADSDEN        CLOUDY    73  63  70 CALM      30.14R
$$

ALZ012-013-022-023-030>036-040>044-281500-
WEST CENTRAL ALABAMA

CITY           SKY/WX    TMP DP  RH WIND       PRES   REMARKS
TUSCALOOSA     CLOUDY    77  67  71 VRB6      30.07R
$$

ALZ015-024>027-033>036-040>044-281500-
CENTRAL ALABAMA

CITY           SKY/WX    TMP DP  RH WIND       PRES   REMARKS
BIRMINGHAM     CLOUDY    74  65  73 E6        30.13R
MONTGOMERY     CLOUDY    75  66  73 CALM      30.10R
SHELBY CO ARPT CLOUDY    72  64  76 SE7       30.11R
MAXWELL AFB    CLOUDY    76  66  70 VRB3      30.09F
GREENVILLE     FAIR      72  66  81 E3        30.09R
$$

ALZ019-021-028-029-037-038-045>048-281500-
EAST CENTRAL ALABAMA

CITY           SKY/WX    TMP DP  RH WIND       PRES   REMARKS
ANNISTON       CLOUDY    76  63  64 NE5       30.13R
ALEXANDER CITY SUNNY     75  70  84 SE7       30.13R
AUBURN         SUNNY    N/A N/A N/A S5        30.14R
$$

ALZ051>064-281500-
SOUTHWEST ALABAMA

CITY           SKY/WX    TMP DP  RH WIND       PRES   REMARKS
MOBILE         MOSUNNY   80  69  69 E13       30.02F
BROOKLEY FIELD SUNNY     79  70  74 E14       30.03F
EVERGREEN      CLOUDY    72  67  84 E3        30.08R
$$

ALZ049-050-065>069-281500-
SOUTHEAST ALABAMA

CITY           SKY/WX    TMP DP  RH WIND       PRES   REMARKS
DOTHAN         MOSUNNY   78  66  66 SE8       30.13R
OZARK          MOSUNNY   79  68  68 VRB5      30.09S
TROY           PTSUNNY   78  68  71 SE5       30.11R
EUFAULA        FAIR      77  66  68 E3        30.11R
$$






000
ASUS44 KBMX 281310
RWRAL

ALABAMA REGIONAL WEATHER ROUNDUP
NATIONAL WEATHER SERVICE BIRMINGHAM AL
800 AM CDT SAT MAY 28 2016

NOTE: "FAIR" INDICATES FEW OR NO CLOUDS BELOW 12,000 FEET
WITH NO SIGNIFICANT WEATHER AND/OR OBSTRUCTIONS TO VISIBILITY.

THE REMARK "TC" DENOTES TEMPERATURE IN DEGREES CELSIUS.

ALZ001>011-014-016>018-020-281400-
NORTH ALABAMA

CITY           SKY/WX    TMP DP  RH WIND       PRES   REMARKS
MUSCLE SHOALS  CLOUDY    73  65  75 CALM      30.08R
HUNTSVILLE     CLOUDY    73  61  65 E6        30.09R
DECATUR        CLOUDY    70  66  87 E5        30.08R
HALEYVILLE     FAIR      70  65  84 S3        30.11R
GADSDEN        CLOUDY    72  63  73 CALM      30.12R
$$

ALZ012-013-022-023-030>036-040>044-281400-
WEST CENTRAL ALABAMA

CITY           SKY/WX    TMP DP  RH WIND       PRES   REMARKS
TUSCALOOSA     CLOUDY    73  69  87 SW3       30.06R
$$

ALZ015-024>027-033>036-040>044-281400-
CENTRAL ALABAMA

CITY           SKY/WX    TMP DP  RH WIND       PRES   REMARKS
BIRMINGHAM     CLOUDY    72  64  76 VRB3      30.12R
MONTGOMERY     CLOUDY    73  65  75 S3        30.09R
SHELBY CO ARPT CLOUDY    71  64  78 VRB3      30.10R
MAXWELL AFB    PTSUNNY   73  65  76 S6        30.09R
GREENVILLE     FAIR      70  65  84 SE5       30.08R
$$

ALZ019-021-028-029-037-038-045>048-281400-
EAST CENTRAL ALABAMA

CITY           SKY/WX    TMP DP  RH WIND       PRES   REMARKS
ANNISTON       CLOUDY    74  63  68 NE5       30.11R
ALEXANDER CITY PTSUNNY   73  70  92 CALM      30.11R
AUBURN         MOSUNNY  N/A N/A N/A SE9       30.13
$$

ALZ051>064-281400-
SOUTHWEST ALABAMA

CITY           SKY/WX    TMP DP  RH WIND       PRES   REMARKS
MOBILE         MOSUNNY   77  70  79 SE8       30.03S
BROOKLEY FIELD MOSUNNY   77  69  76 E14       30.04S
EVERGREEN      PTSUNNY   71  67  87 CALM      30.07R
$$

ALZ049-050-065>069-281400-
SOUTHEAST ALABAMA

CITY           SKY/WX    TMP DP  RH WIND       PRES   REMARKS
DOTHAN         MOSUNNY   74  66  76 SE10      30.12R
OZARK          CLOUDY    76  68  75 VRB5      30.08R
TROY           CLOUDY    75  67  76 SE3       30.10R
EUFAULA        CLOUDY    74  65  73 CALM      30.10R
$$






000
ASUS44 KBMX 281210
RWRAL

ALABAMA REGIONAL WEATHER ROUNDUP
NATIONAL WEATHER SERVICE BIRMINGHAM AL
700 AM CDT SAT MAY 28 2016

NOTE: "FAIR" INDICATES FEW OR NO CLOUDS BELOW 12,000 FEET
WITH NO SIGNIFICANT WEATHER AND/OR OBSTRUCTIONS TO VISIBILITY.

THE REMARK "TC" DENOTES TEMPERATURE IN DEGREES CELSIUS.

ALZ001>011-014-016>018-020-281300-
NORTH ALABAMA

CITY           SKY/WX    TMP DP  RH WIND       PRES   REMARKS
MUSCLE SHOALS  CLOUDY    71  64  78 SE3       30.06R
6HR MIN TEMP:  70; 6HR MAX TEMP:  71;

HUNTSVILLE     LGT RAIN  74  60  61 S7        30.07R
6HR MIN TEMP:  73; 6HR MAX TEMP:  75; 6HR PCP: TRACE;

DECATUR        LGT RAIN  68  67  96 CALM      30.07R
6HR MIN TEMP:  68; 6HR MAX TEMP:  73; 6HR PCP:  0.01;

HALEYVILLE     FAIR      69  65  86 S3        30.08R
6HR MIN TEMP:  69; 6HR MAX TEMP:  71;

GADSDEN        CLOUDY    72  62  71 CALM      30.09R
6HR MIN TEMP:  71; 6HR MAX TEMP:  76;

$$

ALZ012-013-022-023-030>036-040>044-281300-
WEST CENTRAL ALABAMA

CITY           SKY/WX    TMP DP  RH WIND       PRES   REMARKS
TUSCALOOSA     CLOUDY    72  67  84 SE7       30.04R
6HR MIN TEMP:  71; 6HR MAX TEMP:  74; 6HR PCP: TRACE;

$$

ALZ015-024>027-033>036-040>044-281300-
CENTRAL ALABAMA

CITY           SKY/WX    TMP DP  RH WIND       PRES   REMARKS
BIRMINGHAM     CLOUDY    72  65  78 NE3       30.09R
6HR MIN TEMP:  72; 6HR MAX TEMP:  75; 6HR PCP:  0.01;

MONTGOMERY     CLOUDY    72  64  76 SE5       30.06R
6HR MIN TEMP:  69; 6HR MAX TEMP:  75;

SHELBY CO ARPT PTSUNNY   70  65  84 CALM      30.07R
6HR MIN TEMP:  69; 6HR MAX TEMP:  73;

MAXWELL AFB    CLOUDY    72  64  75 SE8       30.06R
6HR MIN TEMP:  70; 6HR MAX TEMP:  73;

GREENVILLE     FAIR      70  65  84 SE5       30.06R
6HR MIN TEMP:  67; 6HR MAX TEMP:  70;

$$

ALZ019-021-028-029-037-038-045>048-281300-
EAST CENTRAL ALABAMA

CITY           SKY/WX    TMP DP  RH WIND       PRES   REMARKS
ANNISTON       CLOUDY    73  61  65 E5        30.10R
6HR MIN TEMP:  71; 6HR MAX TEMP:  75;

ALEXANDER CITY CLOUDY    70  67  92 CALM      30.09S
6HR MIN TEMP:  67; 6HR MAX TEMP:  73;

AUBURN         NOT AVBL
$$

ALZ051>064-281300-
SOUTHWEST ALABAMA

CITY           SKY/WX    TMP DP  RH WIND       PRES   REMARKS
MOBILE         MOSUNNY   71  68  90 E5        30.03R
6HR MIN TEMP:  68; 6HR MAX TEMP:  74;

BROOKLEY FIELD MOSUNNY   75  70  84 SE9       30.04R
6HR MIN TEMP:  69; 6HR MAX TEMP:  75;

EVERGREEN      CLOUDY    69  67  93 CALM      30.06R
6HR MIN TEMP:  66; 6HR MAX TEMP:  71; 6HR PCP: TRACE;

$$

ALZ049-050-065>069-281300-
SOUTHEAST ALABAMA

CITY           SKY/WX    TMP DP  RH WIND       PRES   REMARKS
DOTHAN         PTSUNNY   71  65  81 E7        30.11R
6HR MIN TEMP:  69; 6HR MAX TEMP:  72;

OZARK          MOSUNNY   70  66  86 VRB2      30.06R
6HR MIN TEMP:  67; 6HR MAX TEMP:  70;

TROY           CLOUDY    72  65  78 VRB5      30.08R
6HR MIN TEMP:  67; 6HR MAX TEMP:  72;

EUFAULA        CLOUDY    73  64  73 SE3       30.07R
6HR MIN TEMP:  67; 6HR MAX TEMP:  73;

$$






000
ASUS44 KBMX 280710
RWRAL

ALABAMA REGIONAL WEATHER ROUNDUP
NATIONAL WEATHER SERVICE BIRMINGHAM AL
200 AM CDT SAT MAY 28 2016

NOTE: "FAIR" INDICATES FEW OR NO CLOUDS BELOW 12,000 FEET
WITH NO SIGNIFICANT WEATHER AND/OR OBSTRUCTIONS TO VISIBILITY.

THE REMARK "TC" DENOTES TEMPERATURE IN DEGREES CELSIUS.

ALZ001>011-014-016>018-020-280800-
NORTH ALABAMA

CITY           SKY/WX    TMP DP  RH WIND       PRES   REMARKS
MUSCLE SHOALS  CLEAR     71  64  78 SE6       29.99F
HUNTSVILLE     PTCLDY    73  63  70 SE6       30.01S
DECATUR        CLOUDY    71  65  81 SE6       30.01S
HALEYVILLE     FAIR      71  65  81 SE5       30.02F
GADSDEN        CLOUDY    76  62  62 SE7       30.04S
$$

ALZ012-013-022-023-030>036-040>044-280800-
WEST CENTRAL ALABAMA

CITY           SKY/WX    TMP DP  RH WIND       PRES   REMARKS
TUSCALOOSA     PTCLDY    72  68  87 S3        29.99F
$$

ALZ015-024>027-033>036-040>044-280800-
CENTRAL ALABAMA

CITY           SKY/WX    TMP DP  RH WIND       PRES   REMARKS
BIRMINGHAM     CLEAR     76  63  64 SE3       30.03F
MONTGOMERY     CLOUDY    73  64  73 CALM      30.03R
SHELBY CO ARPT CLOUDY    71  63  75 SE3       30.02S
MAXWELL AFB    CLOUDY    71  66  83 CALM      30.02R
GREENVILLE     FAIR      70  65  84 CALM      30.02S
$$

ALZ019-021-028-029-037-038-045>048-280800-
EAST CENTRAL ALABAMA

CITY           SKY/WX    TMP DP  RH WIND       PRES   REMARKS
ANNISTON       CLOUDY    74  61  63 NE3       30.04S
ALEXANDER CITY PTCLDY    67  65  90 SW3       30.05R
AUBURN         PTCLDY   N/A N/A N/A SE7       30.06S
$$

ALZ051>064-280800-
SOUTHWEST ALABAMA

CITY           SKY/WX    TMP DP  RH WIND       PRES   REMARKS
MOBILE         CLOUDY    72  69  90 CALM      30.00F
BROOKLEY FIELD CLOUDY    71  67  87 CALM      30.00F
EVERGREEN      CLOUDY    69  66  90 CALM      30.02S
$$

ALZ049-050-065>069-280800-
SOUTHEAST ALABAMA

CITY           SKY/WX    TMP DP  RH WIND       PRES   REMARKS
DOTHAN         PTCLDY    72  64  76 E5        30.06R
OZARK          CLOUDY    69  65  87 NE3       30.00F
TROY           CLOUDY    68  65  90 CALM      30.03S
EUFAULA        FAIR      71  61  70 S5        30.03S
$$






000
ASUS44 KBMX 280610
RWRAL

ALABAMA REGIONAL WEATHER ROUNDUP
NATIONAL WEATHER SERVICE BIRMINGHAM AL
100 AM CDT SAT MAY 28 2016

NOTE: "FAIR" INDICATES FEW OR NO CLOUDS BELOW 12,000 FEET
WITH NO SIGNIFICANT WEATHER AND/OR OBSTRUCTIONS TO VISIBILITY.

THE REMARK "TC" DENOTES TEMPERATURE IN DEGREES CELSIUS.

ALZ001>011-014-016>018-020-280700-
NORTH ALABAMA

CITY           SKY/WX    TMP DP  RH WIND       PRES   REMARKS
MUSCLE SHOALS  CLEAR     71  64  78 SE5       30.00F
6HR MIN TEMP:  69; 6HR MAX TEMP:  81;

HUNTSVILLE     MOCLDY    74  65  73 SE5       30.01F
6HR MIN TEMP:  73; 6HR MAX TEMP:  82;

DECATUR        MOCLDY    72  66  81 SE6       30.01F
6HR MIN TEMP:  69; 6HR MAX TEMP:  80; 6HR PCP: TRACE;

HALEYVILLE     FAIR      70  65  84 S5        30.03F
6HR MIN TEMP:  69; 6HR MAX TEMP:  78; 6HR PCP: TRACE;

GADSDEN        CLOUDY    76  62  62 SE5       30.04S
6HR MIN TEMP:  76; 6HR MAX TEMP:  83;

$$

ALZ012-013-022-023-030>036-040>044-280700-
WEST CENTRAL ALABAMA

CITY           SKY/WX    TMP DP  RH WIND       PRES   REMARKS
TUSCALOOSA     CLOUDY    74  69  85 CALM      30.00S
6HR MIN TEMP:  73; 6HR MAX TEMP:  82;

$$

ALZ015-024>027-033>036-040>044-280700-
CENTRAL ALABAMA

CITY           SKY/WX    TMP DP  RH WIND       PRES   REMARKS
BIRMINGHAM     CLEAR     78  63  60 S5        30.05S
MONTGOMERY     CLOUDY    75  64  68 CALM      30.02F
6HR MIN TEMP:  75; 6HR MAX TEMP:  84;

SHELBY CO ARPT CLEAR     70  65  84 CALM      30.02F
6HR MIN TEMP:  70; 6HR MAX TEMP:  82; 6HR PCP: TRACE;

MAXWELL AFB    CLOUDY    73  65  77 S2        30.01F
6HR MIN TEMP:  72; 6HR MAX TEMP:  85;

GREENVILLE     FAIR      70  65  84 CALM      30.02F
6HR MIN TEMP:  70; 6HR MAX TEMP:  82;

$$

ALZ019-021-028-029-037-038-045>048-280700-
EAST CENTRAL ALABAMA

CITY           SKY/WX    TMP DP  RH WIND       PRES   REMARKS
ANNISTON       CLOUDY    75  61  61 CALM      30.04F
6HR MIN TEMP:  75; 6HR MAX TEMP:  83;

ALEXANDER CITY MOCLDY    73  68  85 CALM      30.04S
6HR MIN TEMP:  73; 6HR MAX TEMP:  80;

AUBURN         PTCLDY   N/A N/A N/A SE3       30.06F
$$

ALZ051>064-280700-
SOUTHWEST ALABAMA

CITY           SKY/WX    TMP DP  RH WIND       PRES   REMARKS
MOBILE         CLOUDY    72  70  93 CALM      30.02S
6HR MIN TEMP:  72; 6HR MAX TEMP:  79;

BROOKLEY FIELD CLOUDY    75  66  73 CALM      30.02S
6HR MIN TEMP:  75; 6HR MAX TEMP:  79;

EVERGREEN      CLOUDY    69  67  93 CALM      30.02F
6HR MIN TEMP:  69; 6HR MAX TEMP:  82;

$$

ALZ049-050-065>069-280700-
SOUTHEAST ALABAMA

CITY           SKY/WX    TMP DP  RH WIND       PRES   REMARKS
DOTHAN         PTCLDY    71  63  75 CALM      30.05F
6HR MIN TEMP:  71; 6HR MAX TEMP:  82;

OZARK          CLOUDY    71  66  87 NE2       30.02F
6HR MIN TEMP:  71; 6HR MAX TEMP:  82;

TROY           CLOUDY    70  66  87 CALM      30.03F
6HR MIN TEMP:  70; 6HR MAX TEMP:  81;

EUFAULA        MOCLDY    73  59  61 S6        30.03S
6HR MIN TEMP:  64; 6HR MAX TEMP:  84;

$$






000
ASUS44 KBMX 280510
RWRAL

ALABAMA REGIONAL WEATHER ROUNDUP
NATIONAL WEATHER SERVICE BIRMINGHAM AL
1200 AM CDT SAT MAY 28 2016

NOTE: "FAIR" INDICATES FEW OR NO CLOUDS BELOW 12,000 FEET
WITH NO SIGNIFICANT WEATHER AND/OR OBSTRUCTIONS TO VISIBILITY.

THE REMARK "TC" DENOTES TEMPERATURE IN DEGREES CELSIUS.

ALZ001>011-014-016>018-020-280600-
NORTH ALABAMA

CITY           SKY/WX    TMP DP  RH WIND       PRES   REMARKS
MUSCLE SHOALS  CLEAR     72  64  76 SE3       30.01R
HUNTSVILLE     CLOUDY    73  66  78 SE5       30.02S
DECATUR        PTCLDY    71  67  87 SE5       30.02S
HALEYVILLE     FAIR      72  65  78 SE6       30.04S
GADSDEN        CLOUDY    77  63  61 SE6       30.04F
$$

ALZ012-013-022-023-030>036-040>044-280600-
WEST CENTRAL ALABAMA

CITY           SKY/WX    TMP DP  RH WIND       PRES   REMARKS
TUSCALOOSA     CLOUDY    74  69  85 CALM      30.00S
$$

ALZ015-024>027-033>036-040>044-280600-
CENTRAL ALABAMA

CITY           SKY/WX    TMP DP  RH WIND       PRES   REMARKS
BIRMINGHAM     PTCLDY    79  63  56 SE5       30.05S
MONTGOMERY     CLOUDY    77  64  64 S5        30.03S
SHELBY CO ARPT PTCLDY    71  65  81 CALM      30.03S
MAXWELL AFB    CLOUDY    76  65  67 S5        30.02S
GREENVILLE     FAIR      72  65  78 CALM      30.03S
$$

ALZ019-021-028-029-037-038-045>048-280600-
EAST CENTRAL ALABAMA

CITY           SKY/WX    TMP DP  RH WIND       PRES   REMARKS
ANNISTON       CLOUDY    76  61  59 NE6       30.05F
ALEXANDER CITY CLOUDY    73  68  87 CALM      30.05F
AUBURN         PTCLDY   N/A N/A N/A E6        30.07F
$$

ALZ051>064-280600-
SOUTHWEST ALABAMA

CITY           SKY/WX    TMP DP  RH WIND       PRES   REMARKS
MOBILE         MOCLDY    75  70  84 S5        30.02S
BROOKLEY FIELD CLOUDY    77  67  71 CALM      30.02S
EVERGREEN      PTCLDY    71  67  87 CALM      30.03F
$$

ALZ049-050-065>069-280600-
SOUTHEAST ALABAMA

CITY           SKY/WX    TMP DP  RH WIND       PRES   REMARKS
DOTHAN         MOCLDY    75  63  66 W3        30.07S
OZARK          CLOUDY    73  67  81 CALM      30.03F
TROY           CLOUDY    72  66  81 CALM      30.04F
EUFAULA        FAIR      65  59  81 CALM      30.03F
$$






    US Dept of Commerce
    National Oceanic and Atmospheric Administration
    National Weather Service
    1325 East West Highway
    Silver Spring, MD 20910
    Page Author: NWS Internet Services Team
Disclaimer
Information Quality
Credits
Glossary
Privacy Policy
Freedom of Information Act (FOIA)
About Us
Career Opportunities